EW3966 Weather Reports


Display with metric or nautical units.
time (UTC)temp
F
wind
direction
speed
MPH
gust
MPH
rain 1hr
in
rain 24hr
in
rain mn
in
humidity
%
barometer
mb
20260831232030 62 4 1.0 9.0 0.00 0.00 0.00 85 1004.3
20260831231531 62 28 0.0 9.0 0.00 0.00 0.00 85 1004.2
20260831231025 62 32 2.0 8.0 0.00 0.00 0.00 84 1004.1
20260831230524 63 205 1.0 7.0 0.00 0.00 0.00 84 1004.1
20260831230035 63 34 3.0 8.0 0.00 0.00 0.00 83 1004.0
20260831225524 64 15 1.0 8.0 0.00 0.00 0.00 82 1003.9
20260831225024 64 274 3.0 10.0 0.00 0.00 0.00 82 1003.7
20260831224524 64 253 5.0 10.0 0.00 0.00 0.00 81 1003.6
20260831223526 64 242 3.0 7.0 0.00 0.00 0.00 81 1003.2
20260831223025 64 221 4.0 7.0 0.00 0.00 0.00 81 1003.0
20260831222525 64 251 2.0 7.0 0.00 0.00 0.00 80 1003.0
20260831222025 64 249 2.0 7.0 0.00 0.00 0.00 80 1002.9
20260831221530 64 251 1.0 6.0 0.00 0.00 0.00 79 1002.8
20260831221024 65 241 2.0 6.0 0.00 0.00 0.00 79 1002.7
20260831220526 65 257 2.0 6.0 0.00 0.00 0.00 79 1002.7
20260831220026 65 257 2.0 5.0 0.00 0.00 0.00 79 1002.7
20260831215524 65 236 2.0 6.0 0.00 0.00 0.00 79 1002.6
20260831215023 65 242 2.0 6.0 0.00 0.00 0.00 78 1002.6
20260831214526 65 232 2.0 6.0 0.00 0.00 0.00 78 1002.5
20260831213524 66 234 3.0 7.0 0.00 0.00 0.00 77 1002.6
20260831213025 66 241 2.0 6.0 0.00 0.00 0.00 77 1002.6
20260831212524 66 223 2.0 6.0 0.00 0.00 0.00 77 1002.6
20260831212027 66 258 2.0 6.0 0.00 0.00 0.00 77 1002.5
20260831211531 66 239 2.0 8.0 0.00 0.00 0.00 76 1002.4
20260831211024 66 231 3.0 8.0 0.00 0.00 0.00 76 1002.3
20260831210522 66 222 3.0 7.0 0.00 0.00 0.00 76 1002.3
20260831210022 66 243 2.0 6.0 0.00 0.00 0.00 75 1002.2
20260831205523 67 242 1.0 5.0 0.00 0.00 0.00 75 1002.1
20260831205022 67 233 2.0 7.0 0.00 0.00 0.00 75 1002.0
20260831204522 67 247 2.0 8.0 0.00 0.00 0.00 74 1002.0
20260831203523 67 229 3.0 8.0 0.00 0.00 0.00 74 1002.1
20260831203027 67 266 3.0 7.0 0.00 0.00 0.00 74 1002.2
20260831202523 67 231 3.0 9.0 0.00 0.00 0.00 73 1002.1
20260831202023 67 275 3.0 8.0 0.00 0.00 0.00 73 1002.0
20260831201523 68 249 2.0 10.0 0.00 0.00 0.00 72 1002.0
20260831201023 68 278 2.0 10.0 0.00 0.00 0.00 72 1001.9
20260831200522 68 242 4.0 8.0 0.00 0.00 0.00 71 1001.8
20260831200025 68 226 3.0 8.0 0.00 0.00 0.00 71 1001.8
20260831195525 68 251 5.0 12.0 0.00 0.00 0.00 70 1001.8
20260831195022 69 239 6.0 12.0 0.00 0.00 0.00 69 1001.9
20260831194522 69 261 4.0 11.0 0.00 0.00 0.00 69 1002.0
20260831193521 69 218 5.0 11.0 0.00 0.00 0.00 68 1001.8
20260831193025 69 261 4.0 10.0 0.00 0.00 0.00 68 1001.8
20260831192521 69 195 4.0 11.0 0.00 0.00 0.00 67 1001.8
20260831192020 69 240 4.0 12.0 0.00 0.00 0.00 68 1001.9
20260831191523 69 227 3.0 9.0 0.00 0.00 0.00 69 1002.0
20260831191020 69 219 2.0 9.0 0.00 0.00 0.00 68 1002.0
20260831190521 69 278 5.0 9.0 0.00 0.00 0.00 67 1002.0
20260831190021 69 243 2.0 10.0 0.00 0.00 0.00 67 1001.9
20260831185521 70 230 4.0 11.0 0.00 0.00 0.00 66 1001.8
20260831185021 70 243 2.0 9.0 0.00 0.00 0.00 68 1001.9
20260831184520 70 253 3.0 9.0 0.00 0.00 0.00 66 1001.8
20260831183519 70 196 4.0 8.0 0.00 0.00 0.00 66 1001.8
20260831183021 70 282 2.0 9.0 0.00 0.00 0.00 67 1001.8
20260831182519 70 239 3.0 11.0 0.00 0.00 0.00 69 1001.8
20260831182019 70 208 4.0 11.0 0.00 0.00 0.00 68 1001.7
20260831181519 70 257 5.0 16.0 0.00 0.00 0.00 67 1001.7
20260831181022 70 267 6.0 11.0 0.00 0.00 0.00 67 1001.6
20260831180518 70 207 4.0 12.0 0.00 0.00 0.00 69 1001.7
20260831180017 70 211 5.0 12.0 0.00 0.00 0.00 68 1001.8
20260831175516 70 266 5.0 14.0 0.00 0.00 0.00 68 1001.9
20260831175016 70 241 4.0 14.0 0.00 0.00 0.00 67 1002.0
20260831174516 70 303 6.0 11.0 0.00 0.00 0.00 67 1001.9
20260831173517 71 268 6.0 12.0 0.00 0.00 0.00 67 1002.0
20260831173015 70 251 6.0 12.0 0.00 0.00 0.00 68 1002.1
20260831172515 70 209 6.0 11.0 0.00 0.00 0.00 68 1002.1
20260831172015 70 242 5.0 15.0 0.00 0.00 0.00 68 1002.1
20260831171514 70 219 7.0 15.0 0.00 0.00 0.00 66 1002.2
20260831171013 71 280 4.0 15.0 0.00 0.00 0.00 67 1002.3
20260831170513 71 261 4.0 15.0 0.00 0.00 0.00 67 1002.3
20260831170012 70 279 5.0 13.0 0.00 0.00 0.00 67 1002.3
20260831165511 70 209 5.0 12.0 0.00 0.00 0.00 67 1002.4
20260831165011 71 243 5.0 12.0 0.00 0.00 0.00 67 1002.4
20260831164511 71 261 5.0 15.0 0.00 0.00 0.00 67 1002.5
20260831163512 71 209 5.0 13.0 0.00 0.00 0.00 65 1002.4
20260831163013 71 194 4.0 13.0 0.00 0.00 0.00 67 1002.6
20260831162513 71 256 6.0 13.0 0.00 0.00 0.00 65 1002.5
20260831162011 71 202 6.0 13.0 0.00 0.00 0.00 68 1002.5
20260831161524 71 242 3.0 12.0 0.00 0.00 0.00 72 1002.5
20260831161006 70 212 6.0 12.0 0.00 0.00 0.00 72 1002.6
20260831160506 70 182 6.0 12.0 0.00 0.00 0.00 71 1002.7
20260831160013 70 224 4.0 10.0 0.00 0.00 0.00 70 1002.8
20260831155505 70 207 4.0 9.0 0.00 0.00 0.00 72 1002.9
20260831155004 70 198 4.0 13.0 0.00 0.00 0.00 73 1002.9
20260831154504 70 247 6.0 13.0 0.00 0.00 0.00 72 1003.0
20260831153503 70 203 5.0 15.0 0.00 0.00 0.00 72 1003.0
20260831153002 70 249 6.0 15.0 0.00 0.00 0.00 72 1003.0
20260831152603 70 229 4.0 18.0 0.00 0.00 0.00 72 1003.0
20260831152100 70 191 5.0 18.0 0.00 0.00 0.00 73 1003.0
20260831152002 69 228 7.0 18.0 0.00 0.00 0.00 73 1003.1
20260831151600 69 256 5.0 14.0 0.00 0.00 0.00 73 1003.1
20260831151103 69 178 6.0 13.0 0.00 0.00 0.00 72 1003.2
20260831150604 69 242 7.0 15.0 0.00 0.00 0.00 71 1003.2
20260831150059 70 209 6.0 15.0 0.00 0.00 0.00 72 1003.1
20260831145557 69 252 5.0 10.0 0.00 0.00 0.00 75 1003.2
20260831145057 69 227 5.0 10.0 0.00 0.00 0.00 76 1003.4
20260831144603 68 237 5.0 15.0 0.00 0.00 0.00 77 1003.4
20260831144156 68 262 5.0 15.0 0.00 0.00 0.00 77 1003.4
20260831143555 68 207 6.0 15.0 0.00 0.00 0.00 77 1003.4
20260831143059 68 224 7.0 13.0 0.00 0.00 0.00 78 1003.5
20260831142554 68 223 5.0 13.0 0.00 0.00 0.00 79 1003.6
20260831142054 68 301 6.0 14.0 0.00 0.00 0.00 79 1003.6
20260831141552 68 301 3.0 15.0 0.00 0.00 0.00 80 1003.7
20260831141051 68 197 6.0 15.0 0.00 0.00 0.00 79 1003.8
20260831140550 68 212 4.0 12.0 0.00 0.00 0.00 82 1003.8
20260831140048 66 241 4.0 12.0 0.00 0.00 0.00 83 1003.9
20260831135547 66 182 2.0 12.0 0.00 0.00 0.00 84 1003.9
20260831135047 65 220 5.0 12.0 0.00 0.00 0.00 85 1004.0
20260831134546 65 264 2.0 9.0 0.00 0.00 0.00 86 1003.9
20260831134146 65 203 3.0 7.0 0.00 0.00 0.00 86 1004.0
20260831133544 65 214 2.0 7.0 0.00 0.00 0.00 87 1004.0
20260831133044 65 209 2.0 7.0 0.00 0.00 0.00 87 1004.1
20260831132542 64 255 3.0 9.0 0.00 0.00 0.00 87 1004.2
20260831132042 64 216 3.0 9.0 0.00 0.00 0.00 87 1004.1
20260831131549 64 228 3.0 8.0 0.00 0.00 0.00 88 1004.2
20260831131040 64 232 2.0 8.0 0.00 0.00 0.00 88 1004.3
20260831130540 63 251 2.0 10.0 0.00 0.00 0.00 88 1004.4
20260831130040 63 207 3.0 10.0 0.00 0.00 0.00 89 1004.4
20260831125540 63 201 2.0 8.0 0.00 0.00 0.00 89 1004.4
20260831125040 63 253 2.0 9.0 0.00 0.00 0.00 89 1004.5
20260831124540 63 195 4.0 9.0 0.00 0.00 0.00 89 1004.4
20260831124139 62 214 3.0 9.0 0.00 0.00 0.00 89 1004.3
20260831123540 62 234 5.0 9.0 0.00 0.00 0.00 89 1004.4
20260831123041 63 197 3.0 8.0 0.00 0.00 0.00 91 1004.3
20260831122541 63 197 2.0 7.0 0.00 0.00 0.00 92 1004.3
20260831122043 63 243 1.0 6.0 0.00 0.00 0.00 92 1004.4
20260831121540 63 240 2.0 8.0 0.00 0.00 0.00 92 1004.4
20260831121039 63 224 3.0 8.0 0.00 0.00 0.00 92 1004.4
20260831120540 63 212 2.0 8.0 0.00 0.00 0.00 92 1004.4
20260831120038 63 205 3.0 7.0 0.00 0.00 0.00 92 1004.5
20260831115538 63 256 3.0 7.0 0.00 0.00 0.00 92 1004.6
20260831115037 63 225 4.0 7.0 0.00 0.00 0.00 92 1004.6
20260831114537 63 275 3.0 6.0 0.00 0.00 0.00 92 1004.5
20260831114139 63 210 2.0 6.0 0.00 0.00 0.00 91 1004.6
20260831113538 63 219 1.0 9.0 0.00 0.00 0.00 91 1004.7
20260831113037 63 216 1.0 9.0 0.00 0.00 0.00 91 1004.9
20260831112536 63 200 2.0 6.0 0.00 0.00 0.00 91 1004.9
20260831112036 63 259 2.0 6.0 0.00 0.00 0.00 91 1004.9
20260831111536 63 240 1.0 3.0 0.00 0.00 0.00 90 1005.0
20260831111036 64 241 1.0 7.0 0.00 0.00 0.00 90 1005.0
20260831110535 64 205 2.0 7.0 0.00 0.00 0.00 90 1005.0
20260831110039 64 178 2.0 6.0 0.00 0.00 0.00 89 1005.1
20260831105537 64 216 0.0 6.0 0.00 0.00 0.00 89 1005.0
20260831105036 64 200 3.0 6.0 0.00 0.00 0.00 89 1005.0
20260831104539 64 252 1.0 7.0 0.00 0.00 0.00 89 1005.1
20260831104133 64 226 1.0 7.0 0.00 0.00 0.00 89 1004.9
20260831103533 64 180 2.0 7.0 0.00 0.00 0.00 89 1004.8
20260831103034 64 181 1.0 4.0 0.00 0.00 0.00 89 1004.9
20260831102533 64 242 0.0 6.0 0.00 0.00 0.00 89 1004.8
20260831102033 64 220 0.0 6.0 0.00 0.00 0.00 89 1004.9
20260831101535 64 216 1.0 7.0 0.00 0.00 0.00 89 1004.9
20260831101034 64 243 1.0 8.0 0.00 0.00 0.00 89 1004.9
20260831100531 63 239 3.0 9.0 0.00 0.00 0.00 89 1005.1
20260831100032 63 245 3.0 9.0 0.00 0.00 0.00 89 1005.0
20260831095531 63 245 1.0 6.0 0.00 0.00 0.00 89 1004.9
20260831095032 63 225 2.0 7.0 0.00 0.00 0.00 89 1005.0
20260831094531 63 209 2.0 9.0 0.00 0.00 0.00 89 1005.1
20260831094134 63 241 0.0 6.0 0.00 0.00 0.00 88 1005.0
20260831093532 63 226 2.0 7.0 0.00 0.00 0.00 88 1004.9
20260831093032 63 247 2.0 7.0 0.00 0.00 0.00 88 1004.8
20260831092533 63 214 2.0 9.0 0.00 0.00 0.00 88 1004.9
20260831092033 63 197 3.0 9.0 0.00 0.00 0.00 88 1004.9
20260831091531 63 207 3.0 8.0 0.00 0.00 0.00 88 1005.0
20260831091030 63 197 2.0 11.0 0.00 0.00 0.00 88 1004.9
20260831090530 63 205 4.0 11.0 0.00 0.00 0.00 88 1004.9
20260831090033 63 195 2.0 7.0 0.00 0.00 0.00 88 1004.9
20260831085530 63 244 4.0 7.0 0.00 0.00 0.00 88 1004.9
20260831085028 63 232 2.0 8.0 0.00 0.00 0.00 88 1005.0
20260831084530 63 228 3.0 9.0 0.00 0.00 0.00 88 1005.1
20260831084127 63 226 3.0 10.0 0.00 0.00 0.00 87 1005.1
20260831083528 63 214 3.0 10.0 0.00 0.00 0.00 87 1005.2
20260831083036 63 205 4.0 9.0 0.00 0.00 0.00 87 1005.2
20260831082526 63 228 2.0 9.0 0.00 0.00 0.00 87 1005.3
20260831082028 63 228 4.0 8.0 0.00 0.00 0.00 87 1005.4
20260831081525 63 242 4.0 9.0 0.00 0.00 0.00 87 1005.4
20260831081029 63 247 4.0 9.0 0.00 0.00 0.00 87 1005.4
20260831080525 63 235 2.0 9.0 0.00 0.00 0.00 87 1005.5
20260831080024 63 218 2.0 6.0 0.00 0.00 0.00 86 1005.6
20260831075523 63 205 3.0 6.0 0.00 0.00 0.00 86 1005.6
20260831075024 63 245 2.0 9.0 0.00 0.00 0.00 86 1005.7
20260831074522 63 199 3.0 9.0 0.00 0.00 0.00 86 1005.7
20260831074124 63 211 3.0 10.0 0.00 0.00 0.00 86 1005.7
20260831073523 63 214 2.0 12.0 0.00 0.00 0.00 86 1005.7
20260831073022 63 205 4.0 12.0 0.00 0.00 0.00 86 1005.8
20260831072556 63 239 5.0 9.0 0.00 0.00 0.00 86 1005.8
20260831072020 63 229 3.0 7.0 0.00 0.00 0.00 85 1005.8
20260831071520 63 224 1.0 7.0 0.00 0.00 0.00 85 1005.9
20260831071020 63 218 2.0 10.0 0.00 0.00 0.00 85 1006.0
20260831070520 63 237 2.0 7.0 0.00 0.00 0.00 85 1006.0
20260831070025 63 241 2.0 8.0 0.00 0.00 0.00 84 1005.9
20260831065519 63 206 4.0 8.0 0.00 0.00 0.00 84 1006.0
20260831065020 63 189 4.0 8.0 0.00 0.00 0.00 84 1006.2
20260831064521 63 237 4.0 8.0 0.00 0.00 0.00 84 1006.1
20260831064120 63 225 2.0 11.0 0.00 0.00 0.00 83 1006.0
20260831063519 63 235 3.0 11.0 0.00 0.00 0.00 83 1006.1
20260831063019 63 272 2.0 8.0 0.00 0.00 0.00 83 1005.9
20260831062519 63 242 4.0 8.0 0.00 0.00 0.00 83 1006.0
20260831062018 63 202 3.0 8.0 0.00 0.00 0.00 82 1006.0
20260831061518 63 237 2.0 8.0 0.00 0.00 0.00 82 1006.1
20260831061017 63 223 2.0 8.0 0.00 0.00 0.00 82 1006.1
20260831060517 63 254 2.0 8.0 0.00 0.00 0.00 82 1006.1
20260831060016 63 253 3.0 9.0 0.00 0.00 0.00 81 1006.2
20260831055516 63 210 3.0 9.0 0.00 0.00 0.00 81 1006.2
20260831055016 63 199 3.0 9.0 0.00 0.00 0.00 81 1006.2
20260831054515 63 201 2.0 11.0 0.00 0.00 0.00 81 1006.2
20260831054115 63 197 3.0 8.0 0.00 0.00 0.00 81 1006.3
20260831053515 63 218 3.0 10.0 0.00 0.00 0.00 81 1006.3
20260831053014 63 226 4.0 10.0 0.00 0.00 0.00 80 1006.3
20260831052514 63 245 3.0 11.0 0.00 0.00 0.00 80 1006.4
20260831052013 63 216 3.0 11.0 0.00 0.00 0.00 80 1006.4
20260831051512 63 190 3.0 10.0 0.00 0.00 0.00 80 1006.4
20260831051012 63 236 4.0 10.0 0.00 0.00 0.00 80 1006.4
20260831050511 63 199 3.0 10.0 0.00 0.00 0.00 79 1006.5
20260831050010 63 260 5.0 10.0 0.00 0.00 0.00 79 1006.6
20260831045514 63 224 5.0 10.0 0.00 0.00 0.00 79 1006.8
20260831045011 63 231 4.0 11.0 0.00 0.00 0.00 79 1006.9
20260831044509 63 250 5.0 11.0 0.00 0.00 0.00 79 1006.9
20260831044108 63 214 6.0 11.0 0.00 0.00 0.00 80 1007.0
20260831043509 63 222 4.0 11.0 0.00 0.00 0.00 81 1007.0
20260831043007 63 212 6.0 13.0 0.00 0.00 0.00 82 1007.1
20260831042509 63 226 4.0 13.0 0.00 0.00 0.00 83 1007.2
20260831042006 63 219 3.0 10.0 0.00 0.00 0.00 83 1007.2
20260831041508 62 220 4.0 10.0 0.00 0.00 0.00 84 1007.4
20260831041007 62 251 4.0 9.0 0.00 0.00 0.00 84 1007.5
20260831040503 62 203 5.0 10.0 0.00 0.00 0.00 85 1007.4
20260831040002 62 250 4.0 10.0 0.00 0.00 0.00 85 1007.4
20260831035503 62 224 3.0 9.0 0.00 0.00 0.00 86 1007.4
20260831035002 62 211 3.0 9.0 0.00 0.00 0.00 86 1007.4
20260831034501 62 211 4.0 11.0 0.00 0.00 0.00 86 1007.4
20260831034101 62 214 5.0 10.0 0.00 0.00 0.00 86 1007.6
20260831033502 62 271 5.0 10.0 0.00 0.00 0.00 86 1007.6
20260831033002 62 227 5.0 10.0 0.00 0.00 0.00 86 1007.7
20260831032600 62 249 3.0 10.0 0.00 0.00 0.00 86 1007.8
20260831032102 62 205 4.0 11.0 0.00 0.00 0.00 87 1007.8
20260831031559 62 235 3.0 11.0 0.00 0.00 0.00 86 1007.9
20260831031058 62 230 4.0 9.0 0.00 0.00 0.00 86 1007.9
20260831030600 62 253 5.0 10.0 0.00 0.00 0.00 86 1008.0
20260831025557 62 203 5.0 11.0 0.00 0.00 0.00 86 1007.9
20260831025056 62 234 4.0 10.0 0.00 0.00 0.00 86 1007.9
20260831024616 62 220 5.0 11.0 0.00 0.00 0.00 86 1008.0
20260831024054 62 213 5.0 13.0 0.00 0.00 0.00 86 1008.0
20260831023554 62 229 5.0 13.0 0.00 0.00 0.00 86 1008.0
20260831023052 62 254 4.0 10.0 0.00 0.00 0.00 86 1008.1
20260831022551 62 203 5.0 11.0 0.00 0.00 0.00 86 1008.1
20260831022051 62 226 4.0 11.0 0.00 0.00 0.00 86 1008.1
20260831021553 62 190 5.0 11.0 0.00 0.00 0.00 86 1008.2
20260831021049 62 251 4.0 11.0 0.00 0.00 0.00 85 1008.3
20260831020551 62 204 4.0 10.0 0.00 0.00 0.00 85 1008.4
20260831020047 62 211 4.0 11.0 0.00 0.00 0.00 85 1008.4
20260831015550 62 257 4.0 11.0 0.00 0.00 0.00 84 1008.4
20260831015046 62 253 4.0 11.0 0.00 0.00 0.00 84 1008.5
20260831014546 63 187 5.0 10.0 0.00 0.00 0.00 84 1008.5
20260831014046 63 257 4.0 12.0 0.00 0.00 0.00 83 1008.5
20260831013546 63 251 4.0 12.0 0.00 0.00 0.00 83 1008.6
20260831013053 63 258 6.0 11.0 0.00 0.00 0.00 83 1008.6
20260831012546 63 237 4.0 11.0 0.00 0.00 0.00 83 1008.7
20260831012044 63 236 4.0 14.0 0.00 0.00 0.00 83 1008.9
20260831011552 63 273 4.0 14.0 0.00 0.00 0.00 82 1009.0
20260831011044 63 237 6.0 12.0 0.00 0.00 0.00 82 1009.2
20260831010543 63 206 6.0 12.0 0.00 0.00 0.00 82 1009.3
20260831010104 63 282 5.0 14.0 0.00 0.00 0.00 81 1009.3
20260831005543 63 207 5.0 14.0 0.00 0.00 0.00 81 1009.3
20260831005043 63 230 4.0 10.0 0.00 0.00 0.00 80 1009.5
20260831004542 63 212 4.0 10.0 0.00 0.00 0.00 80 1009.5
20260831004044 63 250 4.0 10.0 0.00 0.00 0.00 79 1009.4
20260831003542 63 255 4.0 10.0 0.00 0.00 0.00 79 1009.4
20260831003042 63 253 5.0 10.0 0.00 0.00 0.00 78 1009.5
20260831002541 63 226 5.0 11.0 0.00 0.00 0.00 78 1009.4
20260831002042 63 189 5.0 11.0 0.00 0.00 0.00 77 1009.6
20260831001542 63 219 4.0 10.0 0.00 0.00 0.00 77 1009.7
20260831001041 63 219 4.0 11.0 0.00 0.00 0.00 76 1009.6
20260831000541 63 230 3.0 11.0 0.00 0.00 0.00 76 1009.6
20260831000055 63 253 3.0 10.0 0.00 0.00 0.00 75 1009.6
20260830235541 63 226 3.0 9.0 0.00 0.00 0.00 75 1009.6
20260830235042 63 236 3.0 10.0 0.00 0.00 0.00 75 1009.4
20260830234540 63 193 3.0 10.0 0.00 0.00 0.00 75 1009.5
20260830234041 63 212 4.0 9.0 0.00 0.00 0.00 75 1009.4
20260830233541 63 251 4.0 9.0 0.00 0.00 0.00 75 1009.5
20260830233041 63 226 3.0 10.0 0.00 0.00 0.00 74 1009.5
20260830232543 64 261 4.0 10.0 0.00 0.00 0.00 74 1009.4